{"data":{"norad_id":57065,"intl_designator":"2023-088T","name":"STARLINK-5830","alt_names":[],"object_type":"PAYLOAD","status":"ACTIVE","operator":null,"country":"US","launch_date":"2023-06-22","launch_site_code":"AFWTR","launch_vehicle":null,"mission":null,"orbit_class":"UNKNOWN","rcs_meters":null,"size_class":null,"mass_kg":null,"dimensions":null,"purposes":["comms"],"wikipedia_slug":null,"has_3d_model":false,"image_url":null,"decayed_at":null,"tle_current":{"epoch":"2026-05-25T01:46:07.394880Z","epoch_age_seconds":79157,"freshness":"FRESH","line1":"1 57065U 23088T   26145.07369670  .00001080  00000+0  49931-4 0  9998","line2":"2 57065  43.0035  42.7181 0000873 257.8525 102.2229 15.26745290160999","mean_motion":15.2674529,"eccentricity":8.73e-5,"inclination_deg":43.0035,"raan_deg":42.7181,"arg_perigee_deg":257.8525,"mean_anomaly_deg":102.2229,"bstar":4.9931e-5,"rev_number":16099,"period_min":94.318286713038,"perigee_km":484.95045689804,"apogee_km":486.14885658831,"semimajor_km":6863.6866567432,"source":"CELESTRAK","updated_at":"2026-05-25T13:38:18.211645Z"}}}